Wind_Speed
17 16 15 16 16 16 15 14 13 13 12 12 11 11 10 10 9 9 9 9 8 8 8 8 7 7 8 8 8 8 8 7 7 7 7 7 7 7 7 6 7 7 7
18 18 17 17 17 17 16 15 15 14 13 13 12 12 12 11 11 10 10 10 10 9 9 9 8 9 9 9 9 9 9 9 9 9 9 9 9 9 8 8 9 9 9
20 19 18 18 18 18 18 17 16 15 15 14 13 13 13 12 12 12 12 11 11 10 10 10 10 10 10 10 10 10 10 10 10 10 10 10 10 10 11 10 10 10 10
21 20 19 19 19 19 19 19 18 17 16 15 15 14 14 13 13 13 13 12 12 12 11 11 11 11 11 11 11 11 11 12 12 12 11 11 12 12 12 12 11 12 12
22 22 21 20 20 20 20 20 19 18 17 16 16 16 15 15 15 14 14 13 13 13 13 13 13 12 12 12 12 13 13 13 13 13 13 13 13 13 13 13 13 13 13
23 23 22 21 21 21 20 20 20 19 17 17 17 17 16 16 15 15 15 15 14 14 14 14 14 14 14 13 13 14 14 14 13 13 13 13 14 14 14 14 14 14 14
23 23 23 22 22 23 22 21 21 20 19 18 18 18 18 17 17 16 16 16 16 16 16 16 16 16 15 15 15 15 15 15 15 14 14 15 15 15 15 15 15 15 15
24 24 24 24 23 24 23 22 21 21 20 20 19 19 19 19 18 18 18 17 17 17 17 17 17 17 17 16 16 16 16 16 16 16 16 16 16 16 16 16 16 16 16
25 25 25 25 25 25 24 23 22 21 21 21 20 20 20 20 19 19 19 19 19 18 18 17 17 18 18 18 18 18 18 18 18 17 17 17 17 17 17 17 17 17 18
26 25 24 25 25 26 25 24 23 22 22 21 21 21 21 21 20 20 20 20 20 19 18 18 17 18 18 19 19 19 19 19 19 18 18 18 18 18 18 18 18 18 19
26 25 24 25 25 25 25 24 23 22 22 21 21 21 22 22 22 21 21 21 21 20 19 19 19 19 19 20 20 20 19 19 19 19 19 19 19 19 19 19 19 20 20
27 26 25 25 25 25 25 25 24 23 22 22 22 23 23 23 23 22 23 23 22 22 21 21 21 21 21 20 20 20 20 20 20 20 21 21 20 20 21 21 21 21 21
27 27 25 26 27 27 26 25 25 24 23 22 22 23 23 24 24 24 23 24 23 23 23 22 23 22 22 22 22 22 21 21 21 21 21 21 21 22 22 22 22 22 23
27 27 25 25 26 27 27 27 26 25 24 23 23 24 24 25 25 25 25 25 25 24 24 24 23 23 23 23 23 23 22 22 22 22 22 22 23 23 23 24 24 24 24
27 26 26 25 27 28 28 27 27 25 24 24 25 24 25 25 26 26 26 26 26 25 23 23 24 24 25 25 24 23 23 23 23 23 23 23 24 24 24 25 25 25 26
26 26 27 26 25 25 26 26 27 26 25 25 25 25 25 25 26 27 27 26 26 25 25 24 26 26 26 26 24 24 23 24 24 24 25 25 25 25 25 26 26 27 27
26 26 26 26 26 26 27 28 28 27 26 26 27 27 26 26 26 27 28 27 27 27 27 26 26 27 27 27 26 25 25 25 25 26 26 27 27 27 27 27 28 29 29
25 27 27 25 26 26 27 28 29 27 27 27 28 28 28 28 27 27 28 28 28 28 27 27 26 26 27 28 27 27 26 26 27 27 27 28 28 29 29 29 30 30 30
24 25 26 27 26 26 26 27 27 27 26 27 27 27 27 28 28 28 28 29 29 29 29 28 27 27 28 29 29 29 28 28 28 29 29 29 30 30 31 31 31 31 32
26 26 27 27 27 27 27 27 28 27 27 27 27 27 28 28 28 28 29 30 30 30 31 31 30 29 30 30 30 30 30 30 31 31 31 32 32 33 33 33 34 34 34
25 26 27 27 27 28 26 26 28 28 28 28 29 29 29 30 29 29 29 30 31 31 32 32 32 31 31 31 31 32 32 32 32 33 33 34 34 35 35 35 35 36 36
24 25 26 27 27 28 27 26 27 29 30 30 29 30 31 31 31 30 31 32 33 33 33 34 34 35 35 34 33 34 34 34 33 34 34 35 35 36 36 36 37 37 37
26 26 26 27 28 28 28 28 29 29 29 29 29 31 32 32 32 32 33 34 35 35 35 36 35 35 35 36 35 35 36 36 35 35 36 36 37 37 38 38 38 38 39
26 26 27 27 28 28 28 28 29 28 29 29 29 30 32 33 33 33 34 35 36 36 36 37 37 37 36 37 38 38 38 37 37 37 38 38 39 39 39 39 40 40 41
26 27 27 27 27 28 28 28 29 29 29 30 30 30 31 32 33 34 34 35 36 37 38 39 38 37 37 38 39 40 40 40 41 40 40 40 40 41 41 42 42 43 43
26 26 27 28 28 28 29 29 30 30 30 30 31 31 32 32 33 34 33 34 36 37 38 39 38 38 39 40 41 41 42 42 43 42 42 42 42 42 43 44 45 45 45
Wind_Direction
246 243 242 240 238 236 234 234 234 233 236 239 242 244 242 243 244 243 243 243 245 249 254 257 258 260 259 260 258 255 256 257 262 266 272 277 281 285 288 290 294 297 301
246 244 242 241 240 238 237 237 237 236 238 240 243 245 243 243 244 244 245 246 248 250 253 256 258 261 261 261 260 256 260 263 265 268 271 275 279 282 285 288 291 293 296
245 244 243 241 241 240 238 237 238 239 241 241 243 244 243 243 244 245 246 248 249 252 254 256 258 260 261 261 263 261 262 266 269 271 273 275 278 280 283 286 288 291 295
242 242 243 241 241 240 239 238 238 240 241 242 243 244 243 243 244 246 249 250 251 252 254 257 259 260 261 263 264 265 266 266 269 272 274 276 278 279 281 282 285 288 292
241 240 242 242 240 239 240 241 239 239 240 242 243 244 245 244 245 247 249 250 251 252 253 255 259 263 264 265 266 266 269 270 271 272 274 277 279 280 280 281 283 286 288
239 239 240 241 240 239 240 240 239 238 239 241 242 244 245 245 245 246 247 248 250 253 255 255 258 262 265 266 267 269 271 273 274 274 275 277 279 280 280 282 284 286 287
238 239 239 240 240 239 239 240 239 239 240 242 243 244 244 245 245 245 246 248 250 253 256 257 257 260 264 266 267 269 270 272 274 276 276 276 277 278 279 281 282 285 286
236 237 239 240 240 239 238 240 241 241 242 243 244 245 244 245 246 246 247 248 250 252 255 258 258 260 262 264 267 269 270 273 274 274 276 275 274 276 279 280 281 283 285
235 236 238 241 240 239 240 240 241 242 243 243 244 244 244 244 244 245 246 247 250 252 255 257 259 260 261 262 264 267 269 271 273 272 273 274 274 275 277 279 281 282 284
235 235 236 239 239 238 238 239 240 242 243 243 245 245 243 243 244 244 245 248 249 251 253 255 258 261 261 262 264 266 268 271 271 270 272 274 274 275 277 278 280 282 283
233 232 233 235 238 238 238 238 239 241 242 242 244 244 244 243 245 246 246 247 249 251 253 255 258 261 262 262 264 265 267 270 271 269 270 273 275 276 277 278 279 280 281
232 234 234 234 236 239 239 238 238 242 244 243 244 246 246 246 245 248 248 248 249 251 253 255 258 261 262 262 264 265 268 270 269 270 271 272 275 276 277 277 278 279 279
236 235 233 234 235 238 240 240 240 241 243 242 244 247 248 247 246 248 249 249 251 253 253 256 258 259 262 263 265 266 268 269 269 270 271 272 275 276 277 278 277 278 279
236 234 235 236 236 237 239 240 241 240 242 243 245 249 250 249 249 249 250 251 251 253 254 255 256 259 262 264 265 266 267 268 270 270 272 274 276 277 277 277 276 277 279
237 236 237 236 238 240 238 240 241 242 243 244 247 249 250 250 250 249 250 252 252 251 253 254 256 259 262 263 265 266 267 268 270 271 273 276 278 279 278 278 277 277 278
237 236 236 233 236 239 238 240 242 243 245 245 248 251 252 250 249 249 250 252 251 250 252 254 257 258 261 264 264 265 267 269 270 271 273 276 277 277 278 279 278 278 279
240 238 235 233 236 239 237 239 241 243 245 248 250 252 253 251 251 251 251 251 251 252 253 255 257 256 258 262 264 265 266 267 269 270 272 274 274 275 275 277 279 279 278
242 240 238 238 240 241 238 240 242 244 247 249 251 253 252 253 253 253 251 250 252 253 253 255 256 256 259 261 262 263 265 267 269 270 272 272 273 274 275 276 278 278 279
243 240 242 241 243 242 241 241 243 245 248 250 251 251 250 251 253 253 252 251 251 252 253 253 254 255 259 260 261 264 266 268 269 271 271 272 273 274 275 276 277 278 279
246 244 246 245 247 246 244 244 244 245 248 249 250 250 249 250 252 252 252 251 251 252 253 254 255 257 260 261 262 265 267 269 270 271 271 273 274 275 275 276 277 277 279
250 247 247 247 248 247 246 245 244 246 247 251 252 251 250 251 252 253 253 252 251 252 254 255 255 257 260 262 263 265 267 269 270 271 272 273 274 274 274 275 276 276 277
251 250 250 248 248 247 248 247 246 246 250 251 250 251 251 252 252 254 254 253 253 253 255 257 258 259 262 264 265 266 267 269 271 271 272 273 274 275 274 275 275 276 277
251 252 250 249 249 250 251 252 252 252 251 248 249 251 251 251 252 255 256 256 255 255 257 258 260 262 263 264 265 267 267 268 270 271 272 273 274 275 274 275 275 275 277
251 251 250 251 252 254 254 255 253 253 251 249 251 253 252 252 253 256 256 257 257 257 258 259 261 263 264 265 266 267 269 269 271 271 271 272 274 275 274 274 275 276 276
252 249 251 254 255 255 255 255 254 253 252 251 252 254 255 255 256 258 259 259 259 259 260 260 263 264 266 267 268 269 270 270 272 273 272 272 273 274 274 275 276 276 277
253 252 253 255 256 256 255 255 254 256 256 256 256 256 257 257 258 259 259 260 261 262 262 262 264 265 267 268 269 270 271 272 272 274 274 273 273 274 275 276 276 276 277
Height
5837 5838 5839 5841 5842 5844 5845 5847 5848 5849 5851 5852 5854 5855 5856 5857 5858 5859 5860 5861 5862 5863 5864 5865 5866 5867 5868 5869 5869 5870 5871 5871 5872 5872 5873 5873 5873 5873 5874 5874 5874 5873 5873
5833 5834 5836 5837 5839 5841 5842 5844 5845 5847 5848 5850 5851 5852 5854 5855 5856 5857 5858 5860 5861 5862 5863 5864 5865 5865 5866 5867 5868 5868 5869 5870 5870 5871 5871 5872 5872 5872 5872 5872 5872 5872 5872
5829 5830 5832 5834 5836 5837 5839 5841 5843 5844 5846 5847 5848 5850 5851 5852 5854 5855 5856 5857 5859 5860 5861 5862 5863 5864 5864 5865 5866 5866 5867 5868 5869 5869 5870 5870 5870 5870 5871 5871 5871 5871 5870
5824 5826 5828 5830 5832 5834 5836 5837 5839 5841 5842 5844 5846 5847 5848 5850 5851 5852 5854 5855 5856 5858 5859 5860 5861 5861 5862 5863 5864 5865 5865 5866 5866 5867 5868 5868 5868 5868 5868 5868 5869 5869 5869
5820 5822 5824 5826 5828 5830 5832 5834 5836 5837 5839 5841 5842 5844 5846 5847 5848 5850 5851 5852 5854 5855 5856 5857 5858 5859 5860 5861 5862 5862 5863 5864 5864 5865 5865 5866 5866 5866 5866 5866 5866 5866 5866
5815 5817 5819 5822 5824 5826 5828 5830 5832 5833 5835 5837 5839 5841 5842 5844 5845 5847 5848 5850 5851 5852 5853 5855 5856 5857 5858 5858 5859 5860 5861 5861 5862 5862 5863 5863 5863 5864 5864 5864 5864 5864 5864
5810 5812 5815 5817 5819 5821 5823 5825 5828 5830 5831 5833 5835 5837 5839 5840 5842 5843 5845 5847 5848 5849 5851 5852 5853 5854 5855 5856 5856 5857 5858 5858 5859 5860 5860 5860 5861 5861 5861 5861 5861 5861 5861
5805 5807 5810 5812 5814 5815 5818 5821 5823 5825 5827 5829 5831 5833 5835 5836 5838 5840 5841 5843 5844 5846 5847 5848 5849 5850 5851 5852 5853 5854 5855 5855 5856 5856 5857 5857 5858 5858 5858 5858 5858 5858 5858
5799 5802 5805 5807 5810 5811 5813 5816 5818 5821 5823 5825 5826 5828 5830 5832 5834 5835 5837 5839 5841 5842 5843 5845 5846 5847 5848 5849 5850 5850 5851 5852 5852 5853 5853 5854 5854 5855 5855 5855 5855 5855 5855
5793 5796 5800 5802 5804 5805 5808 5810 5813 5816 5818 5820 5822 5824 5826 5828 5829 5831 5833 5835 5836 5838 5839 5841 5842 5843 5844 5845 5846 5846 5847 5848 5848 5849 5850 5850 5851 5851 5851 5852 5852 5852 5852
5787 5790 5793 5796 5798 5800 5803 5805 5808 5810 5812 5814 5817 5819 5821 5823 5825 5827 5828 5830 5832 5834 5835 5837 5838 5839 5840 5841 5841 5842 5843 5844 5844 5845 5846 5847 5847 5847 5848 5848 5848 5848 5848
5781 5784 5787 5790 5792 5795 5798 5800 5803 5805 5807 5809 5811 5814 5816 5818 5820 5822 5824 5825 5827 5829 5831 5832 5833 5834 5835 5836 5837 5838 5839 5839 5840 5841 5842 5842 5843 5843 5844 5844 5844 5844 5844
5776 5778 5782 5784 5787 5789 5792 5795 5798 5800 5802 5804 5806 5808 5810 5812 5815 5817 5818 5820 5822 5824 5826 5827 5829 5830 5831 5832 5833 5834 5834 5835 5836 5837 5837 5838 5838 5839 5839 5839 5839 5839 5839
5770 5773 5776 5778 5781 5784 5787 5790 5793 5795 5797 5799 5801 5803 5805 5807 5809 5811 5813 5815 5817 5819 5820 5822 5824 5825 5826 5827 5828 5829 5830 5830 5831 5832 5833 5833 5834 5834 5834 5834 5834 5834 5834
5764 5767 5769 5773 5776 5779 5781 5784 5787 5790 5792 5794 5796 5798 5800 5802 5804 5806 5808 5810 5811 5813 5815 5817 5818 5820 5821 5822 5823 5824 5824 5825 5826 5827 5828 5828 5828 5829 5829 5829 5829 5829 5829
5758 5761 5764 5767 5770 5773 5776 5779 5782 5784 5787 5789 5791 5793 5795 5797 5798 5800 5802 5804 5806 5808 5809 5811 5813 5814 5815 5816 5817 5818 5819 5820 5821 5821 5822 5823 5823 5823 5823 5823 5823 5823 5823
5753 5756 5759 5761 5764 5768 5770 5773 5776 5778 5781 5784 5786 5788 5789 5791 5792 5794 5796 5798 5800 5802 5804 5805 5807 5808 5810 5811 5812 5813 5814 5814 5815 5816 5816 5817 5817 5817 5817 5817 5817 5817 5817
5748 5751 5754 5756 5759 5762 5765 5768 5770 5773 5775 5777 5779 5781 5783 5785 5787 5788 5790 5791 5793 5795 5797 5799 5801 5802 5804 5805 5806 5807 5808 5808 5809 5809 5810 5810 5810 5811 5811 5811 5811 5810 5810
5743 5745 5748 5751 5753 5757 5759 5762 5764 5766 5769 5771 5773 5775 5777 5779 5780 5782 5783 5785 5787 5789 5791 5793 5794 5796 5797 5798 5800 5801 5801 5802 5802 5803 5803 5804 5804 5804 5804 5804 5804 5803 5803
5738 5740 5743 5745 5747 5750 5753 5756 5758 5760 5762 5764 5767 5768 5770 5772 5774 5775 5776 5778 5780 5782 5784 5786 5788 5789 5791 5792 5793 5794 5795 5795 5796 5796 5796 5797 5797 5797 5797 5797 5796 5796 5795
5733 5736 5738 5740 5742 5745 5747 5749 5752 5754 5756 5758 5760 5762 5763 5765 5767 5768 5770 5771 5773 5775 5777 5779 5781 5782 5783 5785 5786 5787 5788 5788 5789 5789 5789 5789 5789 5789 5789 5788 5788 5788 5787
5728 5730 5732 5734 5736 5738 5740 5743 5745 5747 5749 5751 5752 5754 5756 5758 5760 5762 5763 5764 5766 5768 5770 5771 5773 5774 5776 5777 5779 5780 5780 5782 5781 5781 5781 5781 5781 5780 5780 5780 5780 5779 5779
5723 5725 5726 5728 5730 5732 5734 5736 5738 5739 5740 5742 5744 5747 5749 5751 5753 5755 5756 5757 5759 5761 5762 5764 5765 5767 5768 5769 5770 5772 5772 5773 5774 5774 5773 5773 5772 5772 5771 5771 5770 5770 5769
5718 5719 5721 5723 5724 5726 5727 5729 5731 5732 5734 5736 5738 5740 5742 5743 5745 5747 5748 5749 5751 5753 5754 5756 5757 5758 5759 5760 5761 5762 5763 5764 5765 5765 5765 5764 5763 5763 5762 5762 5761 5760 5760
5712 5714 5715 5717 5718 5720 5721 5723 5724 5726 5728 5729 5731 5733 5735 5736 5738 5740 5741 5742 5743 5745 5746 5747 5748 5749 5750 5751 5752 5753 5753 5754 5754 5755 5756 5755 5755 5754 5753 5752 5751 5750 5749
5706 5708 5710 5711 5712 5713 5715 5716 5717 5719 5721 5722 5724 5725 5727 5729 5730 5732 5733 5734 5735 5736 5737 5738 5739 5740 5741 5742 5742 5743 5743 5744 5744 5744 5745 5744 5744 5744 5742 5741 5740 5739 5738